Location: Nakusp
(50.2330°N, 117.8000°W)
Time: 01:56:30
(UTC-07:00)

Daily predictions for brighter satellites

Satellite Brightness Start Highest point End
(mag) Time Altitude Azimuth Time Altitude Azimuth Time Altitude Azimuth
Terra 3.9 00:06:03 17° W 00:06:45 17° W 00:09:54 10° NW
DELTA 2 DEB (DPAF) 4.4 00:08:20 65° NNW 00:08:20 65° NNW 00:12:13 10° NNW
ADEOS Rocket 3.8 00:01:50 10° NNE 00:08:21 40° E 00:08:56 39° ESE
Cosmos 1300 Rocket 4.4 00:05:33 10° N 00:09:13 44° NE 00:09:13 44° NE
Mayak -0.1 00:07:21 10° NNE 00:10:12 38° NE 00:10:12 38° NE
Cosmos 2173 Rocket 3.8 00:13:09 70° S 00:13:58 89° ESE 00:20:21 10° N
Cosmos 1461 4.0 00:10:19 10° NW 00:13:55 45° WNW 00:13:55 45° WNW
Cosmos 1725 Rocket 4.2 00:15:13 51° ESE 00:15:38 52° E 00:21:37 10° NNE
Cosmos 2344 4.2 00:09:41 10° WSW 00:17:17 60° NW 00:26:28 10° NE
ATLAS 5 CENTAUR R/B 3.1 00:12:04 10° NW 00:17:13 38° WSW 00:17:13 38° WSW
CZ-4C R/B 2.8 00:14:51 29° WSW 00:17:34 57° NW 00:23:52 10° NE
USA 234 3.6 00:20:17 46° SW 00:20:17 46° SW 00:26:25 10° WNW
Okean 2 Rocket 3.8 00:16:35 10° NNW 00:20:09 48° NW 00:20:09 48° NW
SeaSat 1 2.5 00:28:35 72° WNW 00:28:35 72° WNW 00:33:05 10° NNW
CZ-4B R/B 3.6 00:23:33 10° NNE 00:27:38 62° NE 00:27:38 62° NE
Cosmos 2016 Rocket 3.8 00:27:59 75° SSE 00:28:31 84° E 00:34:41 10° N
Lacrosse 5 3.6 00:25:56 10° WNW 00:28:06 21° W 00:28:06 21° W
Okean 1-7 4.1 00:33:24 38° NW 00:33:24 38° NW 00:36:58 10° N
Cosmos 1354 Rocket 4.0 00:27:41 10° NNW 00:32:47 82° NNE 00:32:47 82° NNE
Lacrosse 4 Rocket 4.0 00:35:18 10° NNW 00:38:30 19° NE 00:41:22 11° ENE
Cosmos 1812 4.2 00:42:06 35° NNE 00:42:06 35° NNE 00:44:27 10° NNE
Tsikada Rocket 3.8 00:37:02 10° N 00:43:17 87° WSW 00:43:53 75° S
Cosmos 2151 Rocket 4.4 00:39:36 10° NNW 00:43:11 48° NW 00:43:11 48° NW
Cosmos 1459 Rocket 4.3 00:44:57 50° WSW 00:45:59 56° WNW 00:52:00 10° N
CZ-4B R/B 4.2 00:47:22 15° NE 00:47:22 15° NE 00:49:08 10° NNE
Cosmos 1743 4.5 00:44:56 10° N 00:47:36 29° NE 00:47:36 29° NE
Cosmos 1674 Rocket 4.3 00:50:35 50° NNE 00:50:35 50° NNE 00:53:55 10° NNE
Cosmos 1302 Rocket 4.1 00:55:15 65° WNW 00:55:18 65° WNW 01:00:30 10° NNE
COBE Rocket 4.5 00:51:17 10° N 00:55:52 47° WNW 00:55:52 47° WNW
H-2A R/B 3.5 00:59:36 31° WNW 00:59:36 31° WNW 01:02:46 10° NNW
Cosmos 1943 Rocket 4.0 00:56:16 10° WNW 00:59:10 17° W 00:59:10 17° W
Cosmos 1975 3.9 00:56:52 10° N 00:59:53 43° NNE 00:59:53 43° NNE
deb Chang Zheng 4 4.2 01:01:26 10° N 01:04:53 54° NNW 01:04:53 54° NNW
Cosmos 1378 Rocket 4.2 01:10:19 53° NE 01:10:19 53° NE 01:13:50 10° NNE
ALOS 2 4.4 01:13:04 23° WNW 01:13:04 23° WNW 01:15:34 10° NW
MOS 1 Rocket 4.5 01:12:40 10° NNE 01:16:34 34° E 01:16:34 34° E
Cosmos 968 Rocket 3.6 01:18:33 10° NNW 01:23:16 65° WNW 01:23:16 65° WNW
USA 267 3.9 01:20:16 10° ENE 01:26:37 55° NNW 01:32:58 10° W
CZ-2D R/B 4.5 01:24:23 10° ENE 01:26:40 13° E 01:28:40 11° ESE
Gblst 52 Del rocket 4.1 01:25:54 56° W 01:27:08 82° N 01:33:09 10° E
Meteor 2-20 4.3 01:22:59 10° N 01:29:05 83° ENE 01:29:54 68° SSE
Cosmos 2278 4.2 01:25:19 10° NNW 01:30:54 56° NE 01:32:43 39° ESE
COSMOS 2406 3.1 01:32:46 77° SE 01:32:57 78° ESE 01:38:42 10° NNE
USA 32 4.1 01:28:26 10° N 01:33:29 65° WNW 01:33:29 65° WNW
Cosmos 1980 Rocket 3.8 01:28:52 10° NNW 01:33:50 31° NE 01:38:46 10° ESE
Meteor 1-18 Rocket 4.1 01:34:26 76° WSW 01:34:45 79° WNW 01:40:29 10° N
Meteor 1-12 Rocket 4.1 01:29:14 10° NNW 01:34:55 80° W 01:35:10 77° SW
Cosmos 1697 Rocket 3.5 01:31:01 10° NNW 01:36:31 47° NE 01:39:27 25° ESE
Cosmos 2233 Rocket 4.0 01:37:40 60° WSW 01:38:27 66° WNW 01:44:35 10° N
Cosmos 1464 Rocket 4.2 01:38:21 53° SE 01:39:28 62° E 01:45:41 10° NNE
SL-16 R/B 3.8 01:36:53 17° ESE 01:41:09 38° ENE 01:46:50 10° N
Okean 1 Rocket 4.4 01:39:14 10° NNW 01:42:16 31° WNW 01:42:16 31° WNW
Mayak 0.8 01:43:44 10° NNW 01:46:47 20° WNW 01:46:50 20° WNW
Cosmos 2082 Rocket 3.6 01:48:31 25° ESE 01:49:17 26° ESE 01:53:50 10° NE
Geosat 4.1 01:47:34 10° NNE 01:52:34 63° NW 01:53:00 60° W
Meteor 1-19 Rocket 4.2 01:52:19 67° SSE 01:53:00 76° E 01:58:50 10° NNE
ADEOS Rocket 3.8 01:47:17 10° N 01:53:59 48° WNW 01:55:53 38° WSW
Nadezhda 4 Rocket 4.2 01:50:28 10° N 01:56:36 64° ENE 01:58:32 43° SE
Cosmos 1513 Rocket 4.4 01:59:42 59° SSE 02:00:52 78° E 02:06:57 10° NNE
Landsat 5 3.8 02:02:11 68° NW 02:02:11 68° NW 02:06:15 10° NNW
Cosmos 1656 3.6 01:56:44 10° NNW 02:02:30 87° WSW 02:03:25 64° SSE
Resurs 1-4 Rocket 3.7 01:58:36 10° NE 02:02:51 24° E 02:04:37 20° ESE
Cosmos 1340 Rocket 4.3 02:04:33 29° E 02:04:33 29° E 02:07:50 10° NNE
Cosmos 1891 Rocket 4.3 02:03:33 60° S 02:04:42 81° E 02:10:47 10° NNE
Cosmos 1975 Rocket 3.4 02:06:05 60° NW 02:06:05 60° NW 02:10:07 10° N
Cosmos 1455 Rocket 3.3 02:01:46 10° NNW 02:05:33 64° NNW 02:05:33 64° NNW
CZ-4C R/B 4.3 02:02:27 10° WNW 02:07:28 28° NNW 02:13:10 10° NE
NPP 4.5 02:09:32 10° NNE 02:14:40 42° E 02:16:04 35° SE
Lacrosse 4 Rocket 1.5 02:13:24 10° NW 02:17:39 81° N 02:17:39 81° N
PSLV R/B 3.9 02:13:49 10° N 02:17:48 56° NW 02:17:48 56° NW
SL-08 R/B 3.9 02:16:47 39° SE 02:18:17 56° ENE 02:23:05 10° N
CZ-4B R/B 3.1 02:20:48 28° NW 02:20:48 28° NW 02:22:42 10° NNW
Cosmos 1025 Rocket 4.5 02:19:49 27° ESE 02:20:39 29° E 02:24:21 10° NNE
Cosmos 2369 3.6 02:17:16 10° NW 02:22:51 62° WSW 02:23:11 60° SW
UNK 4.2 02:22:28 41° ESE 02:23:43 56° ENE 02:28:13 10° N
Cosmos 1689 Rocket 4.5 02:25:59 20° NNW 02:25:59 20° NNW 02:27:09 10° NNW
Cosmos 1833 Rocket 3.1 02:23:18 43° SSE 02:24:27 50° ESE 02:29:54 10° NE
Meteor 1-13 Rocket 4.1 02:23:40 60° SW 02:24:38 76° WNW 02:30:25 10° N
SL-24 R/B 4.4 02:22:12 10° N 02:27:34 66° WNW 02:28:06 61° WSW
Cosmos 1544 Rocket 4.2 02:24:23 10° NNW 02:27:48 42° WNW 02:27:48 42° WNW
Cosmos 909 Rocket 4.0 02:23:45 10° NW 02:29:56 59° WSW 02:31:19 49° SSW
Cosmos 1242 Rocket 4.3 02:27:18 10° NNW 02:29:09 25° NW 02:29:09 25° NW
AQUA 4.4 02:31:06 10° NNE 02:35:45 48° E 02:36:54 39° SE
Cosmos 2084 Rocket 3.5 02:36:22 65° WNW 02:36:33 66° NW 02:40:44 10° NE
Cosmos 1536 Rocket 3.3 02:37:42 83° SSW 02:37:52 89° W 02:42:15 10° N
Cosmos 1515 3.7 02:40:00 77° NNE 02:40:00 77° NNE 02:43:37 10° N
Iridium 4 Rocket 3.6 02:40:35 43° SE 02:41:35 54° E 02:46:04 10° N
Cosmos 2360 4.2 02:39:01 10° NNW 02:44:46 81° ENE 02:49:02 18° SSE
Gbstr 26 Del rocket 4.2 02:41:39 36° WSW 02:45:10 79° SSE 02:52:06 10° ENE
Lacrosse 5 rocket 1.9 02:47:04 47° SE 02:47:04 47° SE 02:50:53 10° ENE
Cosmos 2195 Rocket 4.5 02:44:45 10° N 02:50:58 81° E 02:54:22 28° SSE
Cosmos 1607 4.0 02:48:50 44° SSW 02:51:04 79° SE 02:57:36 10° NE
ARIANE 5 R/B 3.6 02:46:25 10° NNE 02:51:19 38° E 02:54:03 23° SSE
PSLV R/B 4.0 02:50:26 51° SE 02:51:20 71° ENE 02:55:25 10° N
Cosmos 1867 3.8 02:49:15 10° NW 02:54:25 46° WSW 02:54:25 46° WSW
MOS 1 Rocket 4.2 02:50:59 10° N 02:55:10 35° WNW 02:55:53 33° W
Cosmos 332 Rocket 3.7 02:55:10 57° SW 02:56:04 77° WNW 03:00:54 10° NNE
Okean 2 3.3 02:55:47 64° SSE 02:56:19 76° E 03:00:26 10° NNE
Cosmos 371 Rocket 3.2 02:55:50 56° SW 02:56:50 81° WNW 03:01:43 10° NNE
Cosmos 2034 Rocket 4.3 02:55:26 39° SW 02:57:23 54° WNW 03:03:30 10° N
Cosmos 44 Rocket 4.5 02:55:08 10° NNW 03:00:03 46° NE 03:05:01 10° ESE
Cosmos 1092 Rocket 4.0 02:58:07 10° NNW 03:04:16 63° W 03:06:47 36° SSW
Meteor 1-23 Rocket 4.3 03:03:02 42° SW 03:04:56 68° WNW 03:10:38 10° N
Meteor 2-4 Rocket 4.2 03:03:46 36° WSW 03:05:06 43° WNW 03:10:12 10° N
Cosmos 1655 Rocket 4.4 03:00:09 10° N 03:06:31 65° ENE 03:12:48 10° SSE
SL-27 R/B 3.7 03:07:04 29° NW 03:07:04 29° NW 03:09:47 10° N
CZ-2D R/B 2.2 03:02:15 10° NNE 03:07:42 77° ESE 03:09:59 35° S
USA 267 4.0 03:02:50 10° E 03:09:07 52° N 03:15:25 10° WNW
Cosmos 1726 Rocket 4.1 03:05:29 10° N 03:09:45 55° ENE 03:12:35 20° SSE
Cosmos 2360 Rocket 4.2 03:10:23 10° NNW 03:15:17 29° NE 03:20:09 10° ESE
IRS-1D 3.6 03:12:48 10° NNE 03:17:59 79° ESE 03:20:30 32° S
Cosmos 1980 Rocket 2.2 03:12:40 10° NW 03:18:12 60° WSW 03:21:31 24° S
Gblst 52 Del rocket 4.3 03:13:22 10° WNW 03:19:05 89° NNE 03:25:30 10° ESE
Cosmos 1697 Rocket 3.2 03:15:15 10° NW 03:20:23 36° WSW 03:21:08 34° SW
Cosmos 1428 Rocket 4.4 03:16:45 10° N 03:22:59 89° W 03:27:57 17° S
H-2A R/B 2.7 03:18:53 10° N 03:23:02 57° WNW 03:24:09 43° WSW
IRS-1C 4.1 03:18:27 10° NNE 03:23:50 81° WNW 03:26:18 33° SSW
SL-16 R/B 2.8 03:21:58 31° SSW 03:24:39 49° W 03:30:44 10° NNW
Okean 1-7 Rocket 3.6 03:23:57 34° S 03:25:53 79° E 03:30:25 10° NNE
BREEZE-M DEB (TANK) 4.4 03:02:01 10° WNW 03:26:40 68° SSW 03:31:48 10° SE
UNKNOWN OBJECT B 4.0 03:23:23 10° NNE 03:27:01 37° E 03:29:16 19° SSE
ADEOS II 3.7 03:23:03 10° NNE 03:27:41 30° E 03:32:16 10° SSE
Cosmos 1544 3.0 03:25:59 10° NNW 03:29:39 70° W 03:30:28 49° SSW
ADEOS 4.4 03:24:54 10° NNE 03:29:58 48° E 03:34:05 15° S
Cosmos 304 Rocket 3.8 03:28:51 34° SSW 03:30:57 81° ESE 03:35:49 10° NNE
Cosmos 2058 Rocket 3.4 03:26:51 10° N 03:31:16 65° ENE 03:35:26 11° SSE
SL-16 R/B 2.5 03:25:42 10° NNW 03:31:24 69° ENE 03:37:03 10° SE
Cosmos 2082 Rocket 2.4 03:30:21 32° SW 03:32:57 62° WNW 03:38:36 10° NNE
Cosmos 2228 3.1 03:30:31 10° N 03:34:50 75° ENE 03:38:16 15° SSE
Cosmos 1606 Rocket 3.5 03:33:42 10° NNW 03:38:00 65° W 03:40:03 30° S
MOZ.5/SAFIR/RUBIN 5/SL-8 4.1 03:38:46 31° SSW 03:40:36 48° W 03:45:14 10° NNW
Cosmos 1340 Rocket 4.0 03:40:10 26° W 03:40:50 27° WNW 03:44:16 10° N
Resurs 1-4 Rocket 2.3 03:37:53 10° N 03:43:03 57° WNW 03:45:43 28° SW
Meteor 1-22 Rocket 4.3 03:39:17 10° NNW 03:45:18 73° W 03:50:47 11° S
Cosmos 2322 Rocket 2.2 03:41:11 10° NNW 03:46:53 83° ENE 03:52:31 10° SSE
SJ 16-02 2.8 03:45:39 10° N 03:49:50 40° ENE 03:54:00 10° SE
COSMOS 2487 2.7 03:52:42 35° WSW 03:53:47 52° WNW 03:57:16 10° NNE
ATLAS CENTAUR R/B 2.9 03:50:32 10° NNW 03:54:35 41° NE 03:58:55 10° ESE
Cosmos 1842 3.7 03:52:06 17° S 03:55:03 63° E 03:58:59 10° NNE
Cosmos 1892 Rocket 3.5 03:52:40 22° S 03:55:30 87° W 03:59:56 10° N
Lacrosse 4 Rocket 3.7 03:53:34 10° WNW 03:53:56 11° WNW 03:53:56 11° WNW
ATLAS 3B R/B 3.6 03:50:47 13° S 03:56:51 44° ESE 04:03:18 10° NE
Cosmos 1634 Rocket 4.4 03:54:14 23° SW 03:57:49 46° WNW 04:03:50 10° N
Cosmos 1025 Rocket 4.0 03:56:43 25° WSW 03:58:12 32° WNW 04:02:03 10° N
Cosmos 1763 Rocket 3.8 03:54:44 17° S 03:58:47 68° ESE 04:04:05 10° NNE
Cosmos 1805 3.2 04:02:27 10° NNW 04:06:20 63° W 04:09:42 13° S
Cosmos 1953 3.0 04:03:37 10° N 04:07:40 57° ENE 04:11:40 10° SSE
Cosmos 1833 Rocket 3.6 04:04:59 18° WSW 04:08:36 35° NW 04:13:47 10° NNE
Cosmos 1898 Rocket 4.2 04:04:36 10° NW 04:09:14 33° WSW 04:12:50 15° SSW
Cosmos 2279 Rocket 4.2 04:06:08 18° SSW 04:10:51 58° WNW 04:17:04 10° N
Cosmos 2208 Rocket 4.3 04:07:31 21° SW 04:10:54 53° WNW 04:16:04 10° NNE
Cosmos 44 3.7 04:07:16 10° NW 04:12:15 48° WSW 04:17:23 10° SSE
Cosmos 1766 3.9 04:10:03 10° NNW 04:13:37 36° W 04:15:42 20° SW
USA 215 4.3 04:08:12 10° ENE 04:14:08 36° SE 04:20:03 10° SSW
Aureole 2 Rocket 3.4 04:14:15 10° NNW 04:18:06 56° ENE 04:21:44 10° SE
Cosmos 1937 Rocket 4.0 04:14:38 10° NW 04:19:24 37° WSW 04:24:05 10° S
Cosmos 1125 Rocket 3.8 04:16:56 10° NNW 04:22:18 72° ENE 04:27:35 10° SSE
Cosmos 1356 Rocket 4.4 04:23:17 18° WSW 04:25:27 29° WNW 04:29:05 10° N
Lacrosse 5 rocket 2.0 04:22:44 14° W 04:26:09 48° NNW 04:30:02 10° NE
Cosmos 2322 4.3 04:23:39 10° NNW 04:29:21 64° ENE 04:35:02 10° SE
ARIANE 5 R/B 3.3 04:25:38 10° N 04:30:25 37° WNW 04:34:23 14° SW
Okean O Rocket 4.0 04:28:08 10° NE 04:31:39 23° E 04:35:07 10° SE
Gbstr 26 Del rocket 4.3 04:25:10 10° W 04:32:50 78° N 04:39:10 10° E
Cosmos 1758 3.4 04:30:02 10° NNW 04:33:56 57° W 04:37:50 10° S
Cosmos 724 4.3 04:31:12 14° SW 04:36:15 76° NW 04:42:06 10° NE
Helios 1A Rocket 3.8 04:33:01 10° N 04:36:48 34° WNW 04:39:56 14° SW
CZ-2D R/B 4.1 04:35:03 10° N 04:38:50 39° WNW 04:42:18 12° SW
Cosmos 44 Rocket 3.8 04:36:49 10° NW 04:41:35 39° WSW 04:46:23 10° S
Cosmos 1733 3.3 04:38:35 10° NNW 04:42:23 55° W 04:46:10 10° S
Timation 2 Rocket 3.9 04:37:40 11° SW 04:43:33 78° WNW 04:49:34 10° NNE
Cosmos 372 Rocket 3.9 04:40:38 10° NNW 04:45:53 73° WSW 04:51:03 10° SSE
Cosmos 1814 Rocket 4.2 04:41:18 11° SW 04:46:06 56° WNW 04:51:15 10° NNE
CZ-2D R/B 3.7 04:43:13 10° N 04:47:11 21° NW 04:51:06 10° WSW
Cosmos 2266 Rocket 4.3 04:44:22 10° NNW 04:50:07 45° W 04:55:54 10° SSW
USA 267 3.4 04:45:16 10° ESE 04:51:50 82° NNE 04:58:24 10° WNW
PSLV R/B 3.6 04:50:01 10° NNE 04:54:16 81° ESE 04:58:27 10° SSW
Cosmos 2360 Rocket 2.2 04:54:09 10° NW 04:59:44 65° WSW 05:05:17 10° SSE
USA 238 DEB 3.8 04:52:56 10° SW 04:59:50 84° NW 05:06:54 10° NE
USA 238 3.8 04:53:02 10° SW 04:59:56 85° NW 05:07:00 10° NE
DNEPR-1 R/B 3.9 04:56:20 10° SSW 05:00:33 66° SE 05:05:19 10° NE
UNKNOWN OBJECT B 4.2 04:58:15 10° NNW 05:01:19 23° WNW 05:04:20 10° WSW
Cosmos 1812 Rocket 3.9 05:00:16 10° NNW 05:04:35 47° W 05:08:52 10° SSW
CZ-4B R/B 3.2 05:00:19 10° NNE 05:04:38 78° ESE 05:08:42 10° S
ADEOS II 2.5 05:02:33 10° N 05:07:34 46° WNW 05:12:33 10° SW
Cosmos 1470 3.4 05:05:03 10° NNW 05:08:46 38° W 05:12:27 10° SSW
